GFSGBSN_925_thetae_231.txt.gz
Theta_e
312 311 310 310 310 310 311 312 312 312 311 311 311 312 312 312 313 312 312 313 314 314 315 316 315 315 321 331 331 328 326 329 330 334 335 336 338 341 340 340 340 341 341 341 342 345 346
314 314 312 311 311 311 312 313 313 313 312 312 311 311 311 312 312 312 312 313 313 314 315 315 315 314 329 329 327 327 327 328 332 336 336 336 336 338 338 338 339 338 339 339 340 341 344
313 314 315 315 315 315 314 313 313 314 314 314 314 314 313 312 312 312 312 313 313 314 315 315 315 320 325 327 325 326 327 330 333 332 335 334 334 337 338 338 336 337 340 340 340 341 343
313 312 312 313 313 314 316 316 314 314 314 314 314 314 314 313 312 312 312 313 313 314 315 315 314 325 324 322 323 324 327 329 330 331 333 333 334 336 338 338 335 337 338 342 339 339 341
315 315 314 314 313 314 315 316 316 315 315 315 314 314 314 313 312 312 313 313 313 315 315 315 323 326 323 319 320 324 328 330 332 332 334 333 334 337 337 337 336 336 341 339 339 338 340
316 315 314 314 314 313 314 315 316 315 315 314 313 314 314 313 312 314 314 313 316 315 317 322 322 325 323 322 323 326 328 330 330 335 336 337 338 338 337 338 342 338 338 337 338 336 339
315 313 313 312 313 313 313 314 316 315 315 313 313 313 314 313 312 315 319 320 325 327 324 324 323 324 324 325 325 327 329 329 330 334 340 339 340 338 337 339 337 335 336 336 335 334 335
310 311 310 311 312 313 313 313 316 315 315 313 313 313 313 313 313 315 315 326 325 326 327 323 322 322 323 325 325 328 328 329 332 337 339 340 337 338 336 334 335 335 336 336 335 334 336
311 310 309 309 310 312 313 313 315 315 315 313 313 313 313 313 315 316 320 323 324 326 328 323 323 324 326 326 326 328 328 329 331 335 338 339 336 336 335 335 336 337 335 335 333 334 334
311 310 310 308 310 312 313 313 315 315 315 313 313 312 314 314 315 323 322 322 324 326 332 326 325 327 327 326 326 328 328 328 330 333 335 335 336 334 335 334 335 336 334 332 332 334 335
311 310 309 309 310 312 312 313 314 315 314 313 312 312 314 314 321 322 324 324 326 327 334 327 327 327 328 327 326 325 325 328 329 329 329 328 329 332 334 335 335 334 331 331 332 334 335
310 310 310 310 310 311 313 313 314 314 313 312 312 313 314 314 319 325 325 326 326 331 334 327 328 326 327 329 326 325 327 329 330 328 328 332 330 330 333 334 333 332 332 332 332 333 335
311 310 310 310 310 311 312 314 314 314 313 313 314 316 314 321 326 324 325 328 329 331 330 327 326 327 327 328 328 327 328 329 330 331 329 333 332 332 334 333 331 331 331 334 335 335 335
310 310 310 310 310 311 313 313 314 314 313 314 316 317 318 320 323 324 327 331 333 329 331 328 326 326 327 328 329 328 328 329 329 329 331 333 334 333 332 332 333 333 331 333 340 341 345
309 310 310 310 310 311 313 314 314 314 314 316 316 320 324 322 321 325 330 331 332 332 331 326 328 327 327 329 331 330 331 330 330 330 332 334 334 333 332 332 332 332 333 332 333 341 343
308 309 309 309 309 310 312 313 315 316 317 317 324 326 326 323 324 327 331 330 334 334 335 330 330 329 330 330 331 331 332 332 331 329 331 334 334 334 333 332 332 332 334 332 334 346 344
306 309 309 308 308 309 312 313 315 317 318 317 323 330 325 324 325 330 330 330 332 331 333 333 329 329 331 331 331 332 333 332 332 332 332 334 340 337 333 333 332 331 333 334 337 339 344
305 306 308 308 308 310 311 313 315 318 319 319 333 331 323 325 330 329 330 332 321 331 332 334 334 330 332 332 333 334 334 334 333 335 335 335 337 339 333 334 334 334 335 336 337 339 340
308 305 307 308 309 309 309 312 315 317 317 322 335 329 324 327 331 329 332 332 329 332 335 333 333 334 333 333 334 335 336 334 334 334 338 337 337 351 347 335 334 335 335 335 334 335 337
311 306 305 307 308 308 308 310 314 317 317 320 334 329 328 329 331 332 332 331 331 330 334 334 335 337 335 334 336 334 336 333 333 334 337 335 336 340 347 347 342 336 335 334 334 334 335
315 308 305 306 307 307 306 309 313 318 319 319 336 332 329 330 330 331 332 332 332 336 334 336 338 337 337 337 336 336 336 335 332 330 333 335 337 338 341 343 341 336 335 335 335 335 334
317 312 305 304 306 307 306 307 311 318 323 328 336 337 329 332 329 329 327 332 334 336 336 336 338 336 337 339 337 338 337 337 337 335 337 336 339 337 337 336 335 335 334 333 332 330 331
318 317 309 304 305 306 306 305 309 314 324 331 329 333 335 329 330 329 331 332 333 336 335 336 337 336 337 336 335 335 334 334 335 335 335 336 336 338 338 336 335 336 333 332 330 329 330
318 317 313 305 304 306 306 306 306 311 316 322 326 329 337 336 330 329 331 331 332 336 337 334 335 337 333 331 332 332 332 331 332 332 332 336 336 336 337 336 337 335 334 331 329 329 335
318 317 314 306 303 304 306 307 305 309 312 321 326 327 336 340 332 331 331 331 333 333 334 333 331 332 331 333 333 333 333 332 332 331 331 332 332 334 336 337 335 332 334 333 332 336 336
320 317 315 308 304 303 305 306 306 306 310 317 326 324 330 337 335 333 333 333 334 334 334 332 330 329 330 333 334 336 336 333 335 337 334 332 331 333 334 336 338 334 333 332 331 332 335
320 317 315 311 304 303 304 306 306 305 309 313 323 322 327 334 334 332 334 335 334 334 334 334 333 332 332 334 333 333 333 333 333 333 332 334 335 334 333 333 331 334 332 331 332 340 335
319 316 313 309 305 303 303 305 307 305 308 311 320 321 323 330 331 329 330 333 333 334 336 336 333 333 333 334 333 332 332 332 333 332 332 334 334 334 333 333 333 333 333 332 339 336 336
319 315 311 306 304 302 302 303 306 306 306 311 321 319 319 325 328 325 325 328 329 330 332 332 335 336 335 334 333 334 335 333 334 335 334 334 331 334 338 342 338 335 336 334 335 336 335

GFSGBSN_925_thetae_234.txt.gz
Theta_e
315 314 314 313 313 313 313 313 314 315 315 314 313 312 312 312 312 312 313 313 314 314 315 316 316 315 318 330 332 329 330 330 329 334 337 338 338 341 343 342 341 342 340 342 343 346 344
312 313 314 314 315 315 316 315 315 315 315 315 314 314 314 312 312 312 313 313 314 314 315 316 316 315 329 329 331 329 331 331 334 337 338 338 337 339 340 340 340 339 339 341 342 342 346
315 314 314 313 314 314 315 316 316 316 315 315 315 315 315 314 313 313 313 313 313 314 315 316 315 319 324 327 328 328 329 332 335 337 337 337 336 337 339 339 338 337 340 340 341 343 347
316 315 315 315 315 314 314 315 316 316 315 315 315 315 315 314 313 313 312 313 313 314 316 316 315 323 325 324 325 326 328 332 333 335 334 336 336 337 338 340 335 337 340 343 339 341 347
316 315 314 313 313 313 314 314 315 316 316 316 314 314 315 314 313 312 313 313 314 314 316 315 319 324 323 322 322 324 327 332 335 336 336 336 337 337 338 337 335 337 344 343 339 339 344
312 312 312 312 312 312 313 313 314 316 316 316 314 313 314 314 313 312 314 314 316 315 318 323 323 326 327 324 323 323 327 331 335 337 337 339 339 338 337 337 340 340 342 339 340 337 340
312 312 311 310 311 311 312 313 314 315 316 315 314 313 314 314 312 314 316 322 324 324 325 323 323 323 324 324 324 325 329 332 333 334 338 339 340 340 338 339 340 339 338 337 337 336 336
312 311 311 310 311 312 312 313 313 315 315 315 314 314 314 314 312 315 314 327 327 326 328 326 324 323 325 326 326 327 330 333 334 335 337 339 340 340 339 337 337 337 335 336 336 335 335
311 310 309 309 310 312 313 313 314 315 315 315 314 314 314 313 315 316 319 322 324 326 328 329 323 323 324 325 325 327 332 332 333 335 337 339 342 338 339 336 335 336 335 338 337 335 334
311 310 310 310 309 311 312 313 314 315 315 315 314 313 315 314 316 323 323 322 323 326 333 328 322 323 326 326 327 329 330 331 331 333 334 337 339 338 338 337 335 336 337 334 334 334 335
312 310 310 311 311 311 312 313 314 314 314 314 314 314 315 313 319 327 325 324 325 328 341 327 324 327 328 327 328 328 329 329 329 331 333 335 334 336 335 335 334 336 335 333 332 333 334
310 311 310 309 310 310 311 313 314 314 314 314 313 315 316 316 316 323 327 327 327 330 337 326 328 327 326 327 327 327 328 329 329 330 329 330 330 330 331 334 335 334 333 333 332 333 334
309 310 310 309 310 310 311 313 314 315 314 314 315 317 315 321 326 324 325 328 329 331 332 328 328 326 326 328 326 325 325 327 328 329 328 328 332 330 331 334 334 334 333 333 335 334 335
308 310 310 309 309 309 311 312 314 315 316 317 315 317 319 320 326 326 327 331 333 326 331 329 327 326 327 328 329 326 327 328 329 329 330 330 333 331 333 335 334 332 331 332 339 341 344
306 308 310 309 309 309 310 312 314 315 317 318 316 319 323 323 321 326 331 332 334 332 333 328 326 326 327 328 329 328 328 328 329 329 330 332 333 331 333 332 332 333 334 333 332 333 340
307 306 309 310 309 309 310 311 314 316 318 318 322 328 328 326 323 327 332 330 330 332 335 328 326 327 327 329 330 330 330 331 330 330 330 332 335 334 334 333 333 332 333 334 332 338 343
309 306 307 309 310 310 310 310 313 316 319 319 322 333 328 325 326 328 330 331 331 334 335 330 328 329 328 330 329 332 332 332 332 331 330 332 335 337 337 334 333 332 332 333 335 337 343
314 307 306 307 308 307 307 309 312 315 319 320 329 336 327 326 329 327 327 328 327 332 333 334 334 330 330 331 330 333 334 334 333 333 331 333 335 339 337 339 335 333 332 334 334 342 339
317 312 306 305 306 306 306 307 310 314 316 319 336 332 325 326 328 326 326 328 332 331 332 332 334 334 330 331 332 333 336 335 333 335 338 337 340 349 346 339 340 341 339 334 335 335 343
318 317 311 305 305 306 306 306 309 313 317 317 335 330 328 328 329 332 331 330 332 330 332 333 333 333 333 333 333 340 338 335 334 335 343 335 338 342 353 349 342 344 339 338 334 335 335
319 318 317 307 305 305 305 305 309 312 321 318 333 337 328 328 329 332 333 332 331 332 334 334 334 336 335 336 334 336 339 334 333 332 334 334 341 343 341 341 340 341 336 338 336 336 337
319 318 318 311 305 305 305 305 307 312 322 327 339 338 337 331 326 331 329 334 332 334 334 334 337 336 339 341 341 342 339 336 335 335 336 335 337 343 344 341 341 342 337 335 334 334 334
319 318 318 314 307 304 305 305 305 310 322 332 331 332 337 334 329 328 330 332 333 336 336 335 337 341 341 338 338 336 335 334 337 337 335 334 335 341 342 340 340 341 339 335 333 332 330
320 319 317 316 309 305 304 305 305 307 310 319 330 329 337 342 335 329 329 332 334 340 340 338 338 339 340 334 334 335 333 334 333 333 331 336 337 337 338 336 337 334 336 334 333 331 330
321 320 317 315 313 305 304 304 305 305 309 315 327 328 335 342 340 332 332 333 332 335 337 337 336 335 336 337 337 337 333 331 331 332 331 331 332 334 335 335 335 334 334 334 332 333 332
321 320 318 315 313 307 304 303 304 304 308 312 322 326 329 337 340 335 332 331 332 334 336 335 333 332 332 334 332 332 335 334 333 336 335 334 333 333 334 334 336 337 333 332 331 333 337
321 320 319 314 312 307 304 303 304 304 306 310 322 324 326 333 335 334 336 336 336 337 335 335 334 334 333 333 332 333 333 334 334 334 336 334 335 336 336 334 333 334 334 332 334 340 336
320 319 318 314 312 308 304 303 303 304 305 309 319 324 323 328 331 331 331 334 336 337 338 337 335 334 333 334 333 333 333 332 333 333 334 334 334 334 335 339 336 335 334 337 341 338 337
319 319 317 315 310 308 305 302 303 303 304 308 321 319 319 324 327 325 326 326 330 332 333 335 336 336 337 335 333 333 333 333 335 334 333 335 333 335 334 344 340 337 337 335 337 338 337

GFSGBSN_925_thetae_237.txt.gz
Theta_e
314 313 313 313 314 315 316 316 316 316 316 315 315 314 314 312 312 313 313 314 314 314 315 316 316 315 316 327 329 330 330 335 334 331 332 335 337 340 343 341 342 341 345 344 346 347 349
316 315 315 315 315 314 315 316 317 317 316 316 316 315 315 314 313 313 313 313 314 314 315 316 316 315 327 327 327 329 330 332 333 335 335 336 335 335 341 338 338 339 341 341 346 347 348
317 316 315 314 314 314 315 315 315 317 316 316 315 315 315 315 313 313 313 313 313 314 315 316 316 316 325 322 327 327 327 330 332 334 334 335 335 334 334 336 337 337 340 339 348 347 349
314 313 313 313 313 312 312 313 314 316 316 316 316 314 315 315 313 313 313 313 313 314 315 316 315 319 322 319 323 324 325 327 333 333 335 335 336 333 335 336 335 338 340 343 349 346 347
312 311 311 311 311 311 312 312 313 314 316 316 316 315 315 315 314 313 313 313 314 314 315 316 317 322 322 322 323 323 324 327 331 333 334 336 336 335 335 335 336 336 341 341 343 348 347
313 312 311 310 310 310 311 312 312 313 315 316 316 315 315 315 314 312 313 314 314 316 320 319 323 323 324 326 323 323 324 325 328 333 336 334 335 336 334 335 335 343 342 343 340 343 350
313 310 310 310 310 310 311 312 313 313 314 316 316 315 315 316 313 312 314 323 321 322 320 322 321 323 322 327 324 321 322 324 328 331 334 333 336 337 337 336 337 337 339 340 339 338 339
312 311 311 310 310 310 311 312 312 313 314 315 315 316 315 316 313 312 314 322 326 323 324 322 323 321 322 323 323 321 324 326 331 331 332 333 336 337 338 338 338 338 336 337 337 334 333
313 312 311 312 312 311 311 312 313 313 315 315 315 315 315 315 313 314 316 318 319 322 324 326 325 324 322 322 324 323 325 328 332 332 332 334 337 339 339 338 335 334 335 337 336 335 333
311 313 312 310 311 311 311 312 312 313 314 314 315 315 315 314 316 322 322 320 319 322 325 330 326 323 322 322 322 325 326 330 331 332 332 333 334 340 339 339 334 332 336 337 338 333 334
310 312 312 311 310 310 310 311 312 314 315 315 315 314 315 315 317 322 327 325 323 323 336 331 323 323 321 322 325 323 328 329 329 329 330 330 334 336 338 337 334 333 336 336 334 332 331
308 310 311 311 310 310 309 311 312 314 315 315 314 315 316 315 314 321 324 326 326 329 333 324 321 322 323 324 324 325 327 327 327 326 326 329 328 330 331 333 332 334 332 332 330 328 329
307 307 311 311 310 309 309 311 311 314 315 316 316 315 316 319 325 326 325 325 329 330 331 324 323 324 324 324 325 324 326 324 324 326 326 327 326 328 328 327 329 332 331 330 332 329 330
309 306 308 311 311 310 310 310 311 314 316 318 319 316 318 319 322 325 326 329 334 329 328 325 326 323 323 324 324 323 323 323 323 323 325 325 324 328 327 326 331 330 328 328 334 341 335
313 308 306 308 310 310 310 310 311 313 316 318 319 321 318 323 319 321 328 331 333 332 331 327 326 323 325 324 324 322 323 323 325 325 326 327 329 329 329 330 332 331 329 326 328 329 336
316 312 307 306 307 307 307 307 309 312 317 317 319 326 327 325 320 323 330 330 330 328 328 330 324 324 325 325 325 324 323 326 326 326 324 325 335 331 329 330 329 329 328 327 327 333 341
318 316 312 306 306 306 306 307 308 312 318 319 320 330 332 327 323 326 330 330 329 329 329 331 324 325 325 326 326 328 328 327 327 328 325 329 328 335 335 336 337 335 329 327 326 329 345
318 318 317 311 305 306 306 307 307 311 318 323 328 334 326 324 327 327 325 326 323 326 327 331 332 333 326 326 327 328 331 330 329 329 328 328 337 342 341 338 336 335 338 334 333 334 337
319 319 318 316 308 305 306 306 306 309 314 313 332 335 327 326 328 327 325 324 324 325 327 331 332 333 329 329 331 332 335 333 332 336 336 334 339 344 343 336 336 339 338 336 334 331 339
319 319 318 317 311 306 305 306 305 308 314 314 331 340 329 327 327 327 328 330 325 328 332 330 333 330 332 334 336 338 337 334 333 334 336 333 336 342 344 340 340 339 338 338 333 332 335
320 319 318 318 314 308 305 305 305 307 316 317 331 342 338 331 327 327 328 331 334 333 331 331 335 332 340 341 339 339 337 335 333 330 334 334 339 339 339 339 338 337 339 339 339 335 335
320 320 319 317 316 310 306 305 305 307 320 321 341 341 336 337 337 327 327 332 335 334 334 336 338 339 337 339 339 340 340 339 340 336 335 331 339 341 339 340 339 337 338 338 337 337 330
321 321 320 317 316 313 307 304 305 305 314 324 333 331 333 335 338 333 330 334 335 339 338 338 338 339 340 339 337 336 336 336 336 336 333 334 337 341 343 341 340 341 339 338 338 335 329
322 321 321 319 316 315 309 305 304 306 307 312 324 331 335 341 341 341 337 330 333 340 340 336 336 338 337 336 335 332 332 334 334 334 332 334 336 337 339 342 347 336 336 337 337 331 330
322 321 321 320 316 315 311 305 304 304 305 308 315 327 333 339 339 339 336 335 337 335 334 336 335 334 334 335 337 336 336 334 335 334 330 329 333 337 334 334 333 334 332 334 333 335 334
321 321 321 320 316 315 313 307 304 304 304 306 314 325 327 337 342 337 336 335 335 334 337 337 333 333 333 334 337 339 338 341 337 338 331 331 332 331 333 335 334 332 333 330 330 337 334
321 321 319 319 318 315 314 310 304 304 304 305 313 323 325 331 336 329 334 334 335 338 340 338 338 334 332 334 335 335 338 335 338 340 338 337 334 335 336 338 336 338 332 332 337 342 339
319 320 319 320 319 315 314 312 305 303 304 305 310 320 322 326 325 324 327 330 330 335 339 337 337 337 336 336 334 335 336 334 335 337 336 335 336 334 336 340 346 339 339 343 339 338 337
319 319 319 319 319 316 313 312 306 303 303 304 315 311 319 325 324 323 323 324 325 328 331 336 338 338 338 341 341 339 338 338 339 338 335 336 335 336 335 347 339 337 334 336 335 336 335

GFSGBSN_925_thetae_240.txt.gz
Theta_e
316 316 316 315 315 315 315 315 316 317 317 316 316 315 315 314 313 313 313 313 313 314 314 314 316 316 316 324 325 327 328 329 333 332 330 331 332 334 341 341 341 344 345 348 348 345 348
316 315 314 314 313 313 313 314 314 315 316 317 317 314 315 315 314 313 314 314 313 314 314 314 316 315 325 323 324 326 328 327 329 331 332 331 333 332 337 338 339 339 345 350 349 347 354
312 312 312 312 312 312 311 312 312 314 315 316 316 316 315 316 314 313 313 314 313 313 314 314 315 317 324 317 323 325 323 324 325 325 330 332 332 332 332 333 335 336 350 349 351 350 351
313 313 312 311 310 310 310 311 311 312 313 315 316 316 316 316 314 313 314 314 313 313 314 314 315 318 316 318 318 319 321 323 325 328 331 332 333 333 333 332 334 337 342 351 349 347 344
314 312 312 312 311 309 310 310 311 312 312 314 316 316 316 317 315 313 314 313 313 314 314 315 318 319 319 322 324 321 322 322 323 326 329 331 332 333 333 333 331 335 339 344 352 348 346
312 312 311 310 311 310 309 311 311 312 312 314 316 316 317 316 315 313 313 314 314 315 321 318 322 320 318 321 323 322 325 323 322 324 328 333 329 332 331 330 335 338 339 341 346 349 348
314 313 312 312 312 311 310 311 312 312 313 314 316 315 316 316 315 312 313 320 316 318 320 314 315 320 319 322 323 322 322 322 321 325 328 328 332 333 333 332 333 336 338 341 340 347 351
312 313 313 311 310 311 311 310 311 312 313 315 315 316 316 316 314 312 313 317 321 319 318 318 320 319 319 318 319 320 321 319 323 326 329 328 330 331 335 336 338 338 337 338 338 343 341
311 312 312 312 311 311 310 310 311 312 313 314 315 316 315 318 313 313 313 315 317 317 319 321 320 321 322 319 320 318 317 319 328 329 330 330 331 334 336 338 337 332 334 335 336 334 333
309 310 312 312 312 310 310 310 311 312 313 315 314 315 315 317 315 319 320 324 323 317 319 323 323 324 322 320 319 321 320 324 328 330 330 329 329 333 340 340 337 333 333 336 337 331 331
308 307 310 312 312 310 310 311 311 312 313 314 315 314 315 317 317 317 325 324 321 319 331 330 323 324 319 318 321 323 323 325 328 329 328 330 331 333 338 339 334 335 331 334 333 329 328
311 308 307 310 311 311 311 311 311 311 313 314 316 315 315 315 314 318 323 325 321 323 330 327 322 318 318 317 319 322 323 325 326 327 324 324 326 329 330 333 332 331 331 326 324 323 326
315 310 307 307 309 309 309 308 308 310 312 314 317 316 314 316 319 324 325 319 322 327 326 321 318 316 317 320 320 322 324 324 324 324 322 323 324 323 326 326 323 329 324 327 329 327 329
318 315 310 306 307 308 308 307 308 309 312 317 319 318 317 319 319 321 324 321 330 328 324 321 319 318 320 321 321 322 322 322 321 320 319 323 323 323 325 323 323 326 325 327 331 333 331
318 318 316 309 306 306 307 306 306 309 312 318 319 321 320 319 321 318 320 326 327 328 327 324 321 321 320 320 320 321 320 320 320 318 320 322 323 323 325 325 323 324 327 324 325 324 336
319 319 319 316 308 305 306 306 305 309 312 320 319 320 325 324 322 321 323 326 325 326 327 325 326 319 320 321 321 318 317 319 321 320 319 321 325 328 330 327 331 326 324 326 321 329 339
319 319 319 318 312 306 305 306 305 308 312 322 320 323 327 326 321 318 325 325 325 324 324 325 324 324 318 321 321 317 318 321 321 322 319 319 323 327 334 335 335 333 333 328 321 326 341
319 319 318 318 314 308 305 305 305 307 310 318 321 328 325 321 320 318 319 322 321 324 322 322 323 323 319 319 320 320 321 322 323 324 323 323 330 333 336 336 334 332 335 327 329 333 336
319 320 319 318 317 311 306 305 305 306 311 311 323 327 322 323 323 321 320 322 321 322 322 322 324 324 327 321 322 323 329 330 331 329 331 332 333 334 335 332 333 336 336 332 329 325 333
320 320 320 318 316 314 308 305 305 305 312 312 322 335 322 317 317 322 323 323 325 326 324 324 326 329 332 335 332 331 331 332 331 331 341 335 331 332 335 334 334 337 336 335 332 329 331
321 321 320 320 317 316 310 305 305 305 317 317 322 332 332 335 322 321 321 323 325 329 330 330 335 336 337 335 334 337 334 332 332 335 331 330 333 334 333 337 338 336 337 336 337 334 335
321 321 321 321 318 316 312 306 304 306 316 319 332 333 331 329 330 332 325 322 326 333 337 337 336 336 333 336 336 336 335 334 336 332 330 327 335 335 336 338 336 338 337 336 336 331 339
321 321 321 321 320 316 314 307 304 305 307 314 324 328 328 330 333 337 328 324 331 337 336 336 337 336 334 336 334 332 333 331 333 332 331 330 335 334 337 339 338 335 334 336 335 334 337
321 321 321 321 321 316 315 311 304 305 305 308 314 324 329 335 336 339 336 334 335 337 336 335 334 335 335 331 332 330 330 330 329 330 325 328 331 331 338 336 342 334 330 334 333 338 340
321 321 321 321 320 317 315 314 306 304 304 306 311 319 324 330 336 338 334 332 333 330 336 337 335 332 328 332 334 334 331 331 332 332 329 325 327 326 337 335 329 329 330 335 331 335 342
320 321 321 320 319 319 315 314 311 304 303 305 309 318 320 327 332 334 331 332 334 334 334 334 333 329 329 327 331 333 337 334 334 335 331 324 322 325 325 329 330 329 334 328 328 335 336
320 320 319 319 319 319 316 313 313 305 303 305 308 317 320 321 326 323 328 328 331 336 337 334 335 334 328 331 334 333 333 334 337 337 334 332 327 329 331 332 332 334 335 331 333 336 338
319 318 319 320 319 319 317 313 312 306 303 304 309 314 318 317 318 321 325 325 327 333 338 334 337 334 333 332 330 331 333 330 332 336 337 332 329 327 329 334 339 334 334 338 334 333 335
319 317 317 318 319 319 318 314 311 305 303 303 309 308 314 316 318 321 320 319 320 327 333 334 336 336 336 334 331 330 333 331 330 333 328 332 327 331 330 336 333 330 334 331 330 330 330